FW3241 Weather Reports


Display with metric or nautical units.
time (UTC)temp
F
wind
direction
speed
MPH
gust
MPH
rain 1hr
in
rain 24hr
in
rain mn
in
humidity
%
barometer
mb
20260831014551 67 123 0.0 0.0 0.00 0.01 0.01 79 1022.2
20260831013036 67 123 0.0 0.0 0.00 0.01 0.01 80 1022.0
20260831011538 67 123 0.0 0.0 0.00 0.01 0.01 79 1021.9
20260831010044 67 123 0.0 0.0 0.00 0.01 0.01 79 1021.9
20260831004535 67 123 0.0 0.0 0.00 0.01 0.01 80 1021.9
20260831003035 68 123 0.0 0.0 0.00 0.01 0.01 79 1021.9
20260831001540 68 123 0.0 0.0 0.00 0.01 0.01 79 1021.8
20260831000033 68 123 0.0 0.0 0.00 0.01 0.01 78 1021.8
20260830234550 69 123 0.0 0.0 0.00 0.01 0.01 78 1021.7
20260830233034 69 123 0.0 0.0 0.00 0.01 0.01 78 1021.6
20260830231532 69 123 0.0 0.0 0.00 0.01 0.01 77 1021.5
20260830230037 70 123 0.0 0.0 0.00 0.01 0.01 77 1021.4
20260830224537 71 123 0.0 0.0 0.00 0.01 0.01 77 1021.4
20260830223030 71 123 0.0 0.0 0.00 0.01 0.01 78 1021.4
20260830221530 71 123 0.0 0.0 0.00 0.01 0.01 75 1021.5
20260830220032 71 123 0.0 2.0 0.00 0.01 0.01 76 1021.6
20260830214529 70 123 0.0 2.0 0.00 0.01 0.01 75 1021.4
20260830213028 70 123 1.0 3.0 0.00 0.01 0.01 75 1021.3
20260830211527 70 123 1.0 2.0 0.00 0.01 0.01 75 1021.2
20260830210026 71 123 0.0 2.0 0.00 0.01 0.01 75 1021.4
20260830204525 72 123 0.0 0.0 0.00 0.01 0.01 74 1021.5
20260830203024 72 123 0.0 0.0 0.00 0.01 0.01 73 1021.5
20260830201558 72 123 0.0 0.0 0.00 0.01 0.01 72 1021.5
20260830200022 72 123 0.0 2.0 0.00 0.01 0.01 75 1021.5
20260830194522 72 123 0.0 0.0 0.00 0.01 0.01 73 1021.7
20260830193019 73 123 0.0 0.0 0.00 0.01 0.01 71 1021.9
20260830191520 73 123 0.0 1.0 0.00 0.01 0.01 68 1022.0
20260830190019 73 123 0.0 3.0 0.00 0.01 0.01 71 1022.1
20260830184510 71 123 0.0 2.0 0.00 0.01 0.01 76 1022.4
20260830183010 71 123 0.0 0.0 0.00 0.01 0.01 75 1022.7
20260830181512 70 123 0.0 0.0 0.00 0.01 0.01 76 1022.9
20260830180008 70 123 0.0 0.0 0.00 0.01 0.01 74 1023.2
20260830174507 70 123 0.0 0.0 0.00 0.01 0.01 72 1023.3
20260830173010 70 123 0.0 0.0 0.00 0.01 0.01 70 1023.5
20260830171506 71 123 0.0 0.0 0.00 0.01 0.01 71 1023.4
20260830170004 71 123 0.0 1.0 0.00 0.01 0.01 72 1023.6
20260830164502 70 123 0.0 2.0 0.00 0.01 0.01 71 1023.8
20260830163102 70 123 0.0 2.0 0.00 0.01 0.01 71 1023.8
20260830161556 69 123 0.0 1.0 0.00 0.01 0.01 74 1023.9
20260830160052 67 123 0.0 0.0 0.00 0.01 0.01 75 1024.0
20260830154549 67 123 0.0 1.0 0.00 0.01 0.01 78 1023.9
20260830153048 66 123 0.0 0.0 0.00 0.01 0.01 79 1024.0
20260830151557 66 123 0.0 0.0 0.00 0.01 0.01 81 1024.1
20260830150047 66 123 0.0 0.0 0.00 0.01 0.01 81 1024.1
20260830144546 66 123 0.0 0.0 0.00 0.01 0.01 80 1024.2
20260830143045 65 123 0.0 1.0 0.00 0.01 0.01 80 1024.1
20260830141547 65 123 0.0 0.0 0.00 0.01 0.01 82 1024.1
20260830140044 64 123 0.0 0.0 0.00 0.01 0.01 81 1024.1
20260830134544 64 123 0.0 1.0 0.00 0.01 0.01 82 1024.1
20260830133046 64 123 0.0 0.0 0.01 0.01 0.01 82 1024.1
20260830131541 64 123 0.0 0.0 0.01 0.01 0.01 82 1024.2
20260830130044 64 123 0.0 0.0 0.01 0.01 0.01 82 1024.1
20260830124538 63 123 0.0 0.0 0.01 0.01 0.01 82 1024.1
20260830123039 63 123 0.0 0.0 0.00 0.00 0.00 81 1024.0
20260830121537 63 123 0.0 0.0 0.00 0.00 0.00 81 1023.8
20260830120045 63 123 0.0 1.0 0.00 0.00 0.00 81 1023.7
20260830114538 63 123 0.0 0.0 0.00 0.00 0.00 80 1023.7
20260830113033 63 123 0.0 0.0 0.00 0.00 0.00 80 1023.4
20260830111531 64 123 0.0 0.0 0.00 0.00 0.00 80 1023.1
20260830110030 64 123 0.0 0.0 0.00 0.00 0.00 80 1022.9
20260830104529 64 123 0.0 0.0 0.00 0.00 0.00 79 1022.7
20260830103029 64 123 0.0 0.0 0.00 0.00 0.00 80 1022.6
20260830101529 64 123 0.0 0.0 0.00 0.00 0.00 80 1022.7
20260830100034 64 123 0.0 0.0 0.00 0.00 0.00 80 1022.6
20260830094558 64 123 0.0 0.0 0.00 0.00 0.00 80 1022.4
20260830093026 64 123 0.0 0.0 0.00 0.00 0.00 80 1022.5
20260830091526 64 123 0.0 0.0 0.00 0.00 0.00 80 1022.6
20260830090040 64 123 0.0 0.0 0.00 0.00 0.00 80 1022.7
20260830084524 64 123 0.0 0.0 0.00 0.00 0.00 80 1022.6
20260830083028 64 123 0.0 0.0 0.00 0.00 0.00 80 1022.6
20260830081522 64 123 0.0 0.0 0.00 0.00 0.00 80 1022.7
20260830080038 64 123 0.0 0.0 0.00 0.00 0.00 80 1022.7
20260830074520 64 123 0.0 0.0 0.00 0.00 0.00 79 1022.7
20260830073020 64 123 0.0 1.0 0.00 0.00 0.00 79 1022.8
20260830071521 64 123 0.0 0.0 0.00 0.00 0.00 78 1022.7
20260830070025 64 123 0.0 0.0 0.00 0.00 0.00 77 1022.7
20260830064535 64 123 0.0 1.0 0.00 0.00 0.00 77 1022.7
20260830063016 64 123 0.0 0.0 0.00 0.00 0.00 78 1022.9
20260830061514 64 123 0.0 0.0 0.00 0.00 0.00 78 1023.0
20260830060015 64 123 0.0 0.0 0.00 0.00 0.00 79 1023.3
20260830054533 64 123 0.0 0.0 0.00 0.00 0.00 78 1023.5
20260830053010 65 123 0.0 1.0 0.00 0.00 0.00 77 1023.3
20260830051508 65 123 0.0 0.0 0.00 0.00 0.00 78 1023.4
20260830050006 65 123 0.0 0.0 0.00 0.00 0.00 77 1023.5
20260830044513 66 123 0.0 2.0 0.00 0.00 0.00 77 1023.6
20260830043003 66 123 0.0 1.0 0.00 0.00 0.00 76 1023.7
20260830041503 65 123 0.0 1.0 0.00 0.00 0.00 77 1023.9
20260830040104 65 123 0.0 0.0 0.00 0.00 0.00 77 1024.0
20260830034559 66 123 0.0 0.0 0.00 0.00 0.00 77 1024.1
20260830033057 66 123 0.0 1.0 0.00 0.00 0.00 78 1024.1
20260830031557 66 123 0.0 1.0 0.00 0.00 0.00 77 1024.0
20260830030057 66 123 0.0 0.0 0.00 0.00 0.00 77 1024.0
20260830024555 66 123 0.0 0.0 0.00 0.00 0.00 76 1024.0
20260830023055 66 123 0.0 1.0 0.00 0.00 0.00 77 1023.9
20260830021554 66 123 0.0 0.0 0.00 0.00 0.00 77 1023.6
20260830020059 66 123 0.0 1.0 0.00 0.00 0.00 76 1023.5